Regional Weather Roundup
Issued by NWS

Home | Current Version | Previous Version | Graphics & Text | Print | Product List | Glossary On
Versions: 1 2 3 4 5 6 7 8 9 10 11 12 13 14 15 16 17 18 19 20 21 22 23 24 25 26 27 28 29 30 31 32 33 34 35 36 37 38 39 40 41 42 43 44 45 46 47 48 49 50
000
ASUS43 KBIS 161202
RWRND

NORTH DAKOTA REGIONAL WEATHER ROUNDUP
NATIONAL WEATHER SERVICE BISMARCK ND
600 AM CST TUE JAN 16 2018

NOTE: "FAIR" INDICATES FEW OR NO CLOUDS BELOW 12,000 FEET WITH NO
SIGNIFICANT WEATHER AND/OR OBSTRUCTIONS TO VISIBILITY.


NDZ001>003-009>011-017-161300-
NORTHWEST NORTH DAKOTA

CITY           SKY/WX    TMP DP  RH WIND       PRES   REMARKS
WILLISTON      PTCLDY   -12 -17  78 SW5       30.56F WCI -24
6HR MIN TEMP: -19; 6HR MAX TEMP: -12;

MINOT          CLOUDY   -10 -17  71 S6        30.59F WCI -23
MINOT AFB      CLOUDY    -8 -15  70 S9        30.58F WCI -25
$$

NDZ018>021-031>035-040>046-161300-
SOUTHWEST NORTH DAKOTA

CITY           SKY/WX    TMP DP  RH WIND       PRES   REMARKS
BISMARCK       PTCLDY   -21 -26  77 CALM      30.73F
6HR MIN TEMP: -26; 6HR MAX TEMP: -16;

DICKINSON      CLEAR    -11 -17  75 S13       30.52F WCI -32
GARRISON         N/A    -19 -25  73 S5        30.62F WCI -32
6HR MIN TEMP: -21; 6HR MAX TEMP: -15;

HETTINGER ARPT CLEAR    -14 -19  79 S7        30.59F WCI -30
$$

NDZ004>008-012>016-024-026-027-054-161300-
NORTHEAST NORTH DAKOTA

CITY           SKY/WX    TMP DP  RH WIND       PRES   REMARKS
GRAND FORKS    FAIR     -17 -22  78 S5        30.76F WCI -30
GRND FRKS AFB  FAIR     -16 -24  69 SW5       30.75F WCI -29
DEVILS LAKE    FAIR     -16 -21  78 SW7       30.69F WCI -32
$$

NDZ022-023-025-028>030-036>039-047>053-161300-
SOUTHEAST NORTH DAKOTA

CITY           SKY/WX    TMP DP  RH WIND       PRES   REMARKS
FARGO          FAIR     -14 -21  71 W5        30.80S WCI -26
6HR MIN TEMP: -15; 6HR MAX TEMP:  -9;

JAMESTOWN      CLOUDY   -15 -20  78 W6        30.71F WCI -29
$$





USA.gov is the U.S. government's official web portal to all federal, state and local government web resources and services.